Tracking 31027 objects as of 19-Jul-2025
HD Live streaming from Space Station
objects crossing your sky now

CP5

Track CP5 now!
10-day predictions
CP5 is classified as:


NORAD ID: 38763
Int'l Code: 2012-048F
Perigee: 434.2 km
Apogee: 610.6 km
Inclination: 64.7 °
Period: 94.9 minutes
Semi major axis: 6893 km
RCS: Unknown
Launch date: September 13, 2012
Source: United States (US)
Launch site: AIR FORCE WESTERN TEST RANGE (AFWTR)

Uplink (MHz):
Downlink (MHz): 437.405
Beacon (MHz): 437.405
Mode: 1200bps AFSK CW
Call sign: CP5
Status: Inactive

Your satellite tracking list
STARLINK-31611
Track 1 satellite(s)




NASA's NSSDC Master Catalog

Two Line Element Set (TLE):
1 38763U 12048F   25199.28809373  .00008006  00000-0  33648-3 0  9999
2 38763  64.6541 167.0536 0127989 269.2211  89.4247 15.16889592 65933
Source of the keplerian elements: Caltech